Powrót do katalogu

STARLINK-31906

AktywnyŁącznośćVLEO
NORAD 59842·PAYLOAD·🇺🇸 United States

Wystrzelony May 23, 2024 z Cape Canaveral Space Force Station

Loading…

Następne Przeloty (najbliższe 24 godziny)

TLE

ŚwieżeSource: CelesTrak SupGP

Epoka: Sep 14, 2026, 14:10 UTC

1 59842C 24097H   26257.59076389  .00049833  00000+0  18052-2 0  2570
2 59842  43.0001 287.6699 0001489 276.5559 146.0368 15.27548336    19

Śledź STARLINK-31906 w czasie rzeczywistym z AllMySat

Download on the App Store